SCP
0 1 1 0 0 -0 -0 -0 -0 -0 -0 -0 -0 -0 -0 -0 -0 -0 -0 -0 -0 0 0 0 0 0 0 0 0 0 0 0 0 0 -0 0 0 0 0 0 0 0 0
-0 -0 0 0 0 -0 -0 -0 -0 -0 -0 -0 -0 -0 -0 -0 -0 -0 -0 -0 -0 -0 0 0 0 0 0 0 0 0 0 0 0 0 0 0 0 0 0 0 0 0 0
-1 -1 -1 0 0 -0 -0 -0 -0 -0 -0 -0 -1 -0 -0 -0 -0 -0 -0 -0 -0 -0 0 0 0 0 0 0 0 0 0 0 0 0 0 0 0 0 0 0 1 1 0
-1 -0 0 0 0 0 -1 -0 -0 -0 -0 -0 -0 -0 -0 -0 -0 -0 -0 -0 -0 -0 0 0 0 0 0 0 0 0 0 0 0 0 0 0 0 0 0 1 1 0 0
0 0 0 0 0 0 -0 0 0 -0 -0 -0 -0 -0 -0 -0 -0 -0 -0 -0 -0 -0 0 0 0 0 0 0 0 0 0 0 0 0 0 0 0 0 0 1 1 1 0
-0 -0 0 0 0 0 -0 0 0 0 0 -0 -0 -0 -0 -0 -0 -0 -0 -0 -0 -0 0 0 0 0 0 0 0 0 0 0 0 0 0 0 0 0 0 0 0 0 0
-1 0 0 0 0 0 -0 -0 0 0 0 0 -0 -0 -0 -0 -0 -0 -0 -0 -0 -0 0 0 0 0 0 0 0 0 0 0 0 0 0 0 0 0 0 0 0 0 0
-0 0 0 0 0 0 0 0 0 0 0 0 0 0 0 -0 -0 -0 -0 -0 -0 0 0 0 0 0 0 0 0 0 0 0 0 0 0 0 0 0 0 0 0 0 0
0 1 1 1 0 0 0 0 0 0 0 0 0 0 0 0 0 -0 -0 -0 -0 0 0 0 0 0 0 0 0 0 1 0 0 0 0 0 0 0 0 0 0 0 0
0 1 1 1 0 0 0 0 0 0 0 0 0 0 0 0 0 0 0 0 0 0 0 0 0 0 0 0 0 0 0 0 0 0 0 0 0 0 0 0 0 0 0
1 1 1 1 0 0 0 0 0 0 0 0 0 0 0 0 0 0 0 0 0 0 0 0 0 0 0 0 0 0 0 0 0 0 0 0 0 0 0 0 0 0 0
0 0 1 2 0 0 0 0 0 0 0 0 0 0 0 0 0 0 0 0 0 0 0 0 0 0 0 0 0 0 0 0 0 0 0 0 0 0 0 0 0 0 0
1 1 1 1 1 0 0 0 0 0 0 0 0 0 0 0 0 0 0 0 0 0 0 0 0 0 0 0 0 0 0 0 0 0 0 0 0 0 0 0 0 0 0
1 1 1 1 1 1 0 0 0 0 0 0 0 0 0 0 0 0 0 0 0 0 0 0 0 0 0 0 0 1 0 0 0 0 0 0 0 0 0 0 0 0 0
0 1 1 1 1 1 0 0 0 0 0 0 0 0 0 0 0 0 0 0 0 0 0 0 0 0 0 0 0 1 0 0 0 0 0 0 0 0 0 0 0 0 0
-0 0 1 1 2 1 0 0 0 0 0 0 0 0 0 0 0 0 0 0 0 0 0 0 0 0 0 0 1 1 0 0 0 0 0 0 0 0 0 0 0 0 0
0 0 1 2 1 1 1 0 0 0 0 0 0 0 0 0 0 0 0 0 0 0 0 0 0 0 0 0 1 0 0 0 0 0 0 0 0 0 0 0 0 0 0
0 0 1 1 1 1 1 0 0 0 0 0 0 0 0 0 0 0 0 0 0 0 0 0 0 0 0 0 0 0 0 0 0 0 0 0 0 0 0 0 0 0 0
0 1 1 2 1 1 0 0 0 0 0 0 0 0 0 0 0 0 0 0 0 0 0 0 0 0 0 0 0 0 0 0 0 0 0 0 0 0 0 0 0 0 0
-0 0 1 2 1 1 0 0 0 0 0 0 0 0 0 0 0 0 0 0 0 0 0 0 0 0 0 0 0 0 0 0 0 0 0 0 0 0 0 0 0 0 0
0 1 2 2 1 1 0 0 0 0 0 0 0 0 0 0 0 0 0 0 0 0 0 0 0 0 0 0 0 0 0 0 0 0 0 0 0 0 0 0 0 0 0
0 1 1 1 1 1 0 0 0 0 0 0 0 0 0 0 0 0 0 0 0 0 0 0 0 0 0 0 0 0 0 0 0 0 0 0 0 0 0 0 0 0 0
0 1 1 1 1 1 1 0 1 0 0 0 0 0 0 0 0 0 0 0 0 0 0 0 0 0 0 0 0 0 0 0 0 0 0 0 0 0 0 0 0 0 0
1 1 1 1 0 1 0 1 1 0 0 0 0 1 0 0 0 0 0 0 0 0 0 0 0 0 0 0 0 0 0 0 0 0 0 0 0 0 0 0 0 0 0
1 1 1 0 0 0 0 1 1 0 0 0 1 1 1 0 0 0 0 0 0 0 0 0 0 0 0 0 0 0 0 0 0 0 0 0 0 0 0 0 0 0 0
0 1 1 1 1 0 0 1 1 1 1 0 0 0 0 0 0 0 0 0 0 0 0 0 0 0 0 0 0 0 0 0 0 0 0 0 0 0 0 0 0 0 0
Wind_Speed_500mb
66 65 64 57 52 46 41 47 52 51 45 40 38 36 33 30 28 25 23 22 20 17 15 13 11 11 11 9 7 6 6 5 7 9 10 11 15 16 13 13 15 19 24
63 66 63 58 53 46 42 48 52 54 48 43 38 34 31 28 26 23 21 20 18 16 14 13 12 11 8 5 5 7 8 9 12 13 14 15 17 18 13 15 17 15 21
55 68 67 60 55 47 45 47 53 55 50 43 40 35 31 27 24 21 18 17 16 15 14 12 11 10 5 3 6 8 12 14 15 15 16 17 17 15 13 17 14 14 19
39 68 71 64 56 49 45 51 56 54 50 45 40 36 32 28 25 20 18 17 16 15 13 11 10 7 4 2 7 11 12 13 13 12 14 14 10 9 13 17 16 14 18
54 74 72 65 57 50 44 51 56 54 49 45 41 37 34 30 24 21 19 18 16 14 13 10 8 5 2 3 7 10 12 12 11 12 15 16 8 7 14 14 14 15 20
57 69 69 62 56 51 47 49 54 54 50 45 42 40 36 32 26 21 20 17 16 15 12 9 6 5 6 5 7 10 12 12 13 16 17 15 11 11 13 12 15 20 29
62 71 71 64 56 49 46 48 50 51 50 47 45 43 39 33 27 22 20 18 17 15 11 8 6 7 7 3 6 8 11 13 15 18 21 16 13 10 10 17 27 31 32
51 66 67 65 57 50 45 45 47 49 49 47 45 42 37 31 25 23 20 19 16 13 9 9 9 10 6 1 6 8 10 12 15 19 21 15 13 12 15 26 32 33 35
49 60 68 66 58 52 47 44 44 47 46 45 44 40 35 29 26 22 22 21 15 11 10 12 11 10 3 3 6 6 8 12 18 21 16 11 12 19 22 26 33 40 47
51 60 73 71 64 57 50 48 46 46 44 44 41 37 34 30 27 24 23 21 16 13 13 14 10 4 1 2 2 8 10 16 21 21 9 13 17 17 20 28 39 45 42
55 55 76 74 70 63 55 50 46 43 41 39 39 37 35 33 30 27 25 20 17 16 15 9 6 3 2 1 3 8 15 19 18 9 9 12 16 18 25 37 45 43 39
43 52 74 77 76 69 61 56 52 47 44 42 40 37 35 33 31 30 26 23 20 18 13 6 5 5 3 2 11 18 20 18 12 6 7 11 13 23 36 42 43 39 41
31 45 61 79 76 73 68 64 57 52 46 41 37 35 34 33 32 30 25 23 22 18 14 8 6 7 7 11 19 18 16 13 5 6 6 8 19 31 38 39 36 41 44
32 38 58 74 78 76 72 63 58 52 45 40 37 36 35 35 32 28 25 24 22 18 13 11 9 10 13 17 16 14 13 7 1 4 4 13 24 30 35 33 34 37 40
29 42 41 62 75 77 70 67 61 54 48 41 38 37 36 35 32 30 27 25 21 17 15 10 12 16 16 13 14 10 6 2 3 3 4 13 21 28 32 32 36 39 41
40 40 49 52 63 71 70 65 61 56 50 44 38 38 37 33 34 33 28 23 19 16 15 12 15 17 12 10 6 3 4 4 4 2 6 13 20 26 29 32 37 40 41
38 49 53 62 61 68 70 64 60 56 51 44 39 38 37 35 37 33 26 21 21 17 15 14 14 13 11 9 9 7 7 9 4 2 8 9 15 26 29 33 40 41 42
37 51 58 63 77 70 71 69 62 58 51 45 40 40 39 38 35 31 28 25 21 18 17 15 14 14 14 14 14 12 13 11 6 4 10 16 19 19 25 37 41 42 44
37 47 58 63 73 78 71 69 61 58 53 46 44 44 41 38 35 31 27 25 21 20 18 18 16 17 18 18 17 15 15 12 7 8 12 17 19 22 28 37 42 42 45
40 44 56 60 54 70 65 64 60 58 55 50 48 45 44 39 33 29 28 25 24 23 21 21 20 20 20 19 21 20 18 14 11 12 14 14 19 23 30 36 41 41 45
42 47 53 55 51 60 65 66 67 66 62 53 50 48 44 40 34 31 24 26 25 24 23 23 22 23 19 19 23 22 17 14 14 15 13 14 18 23 29 39 40 45 48
49 52 46 49 50 66 65 69 68 66 61 53 52 51 49 39 33 26 23 27 27 26 25 25 26 21 18 25 26 17 8 11 16 17 15 15 20 22 29 36 39 43 48
59 68 48 57 62 68 66 69 65 65 61 59 57 55 50 41 30 25 23 24 27 28 28 27 25 17 17 28 25 15 5 8 8 18 17 16 20 23 27 33 38 43 45
57 63 60 56 71 69 68 69 70 69 66 60 59 58 52 43 36 32 26 26 30 30 26 25 20 18 18 23 30 31 22 18 10 7 14 16 22 27 29 29 34 39 46
57 63 61 95 58 59 72 67 63 64 66 65 67 58 49 49 43 38 31 31 29 23 27 19 19 20 22 26 31 29 29 23 17 9 10 9 16 24 29 28 32 31 42
46 62 72 70 50 67 73 63 59 64 72 73 72 64 60 58 52 41 36 33 26 25 24 20 20 23 24 26 27 22 17 7 5 2 4 9 12 17 23 23 22 29 36
Wind_Direction_500mb
189 180 177 177 171 166 172 170 172 170 166 160 163 160 157 160 156 157 152 149 147 147 143 142 134 123 116 105 89 65 51 18 350 342 339 340 345 341 331 337 341 347 347
188 183 180 180 176 167 172 174 175 171 169 167 170 165 161 164 164 161 155 151 146 149 144 140 138 134 127 104 44 15 356 339 330 324 320 314 322 329 323 332 324 317 333
194 186 183 183 180 174 173 178 177 174 172 175 174 173 168 171 169 163 160 157 156 153 149 149 148 142 126 50 359 349 345 338 335 332 323 314 304 310 317 314 321 298 322
200 193 185 185 183 179 177 178 180 179 175 179 178 178 175 175 171 168 163 163 164 158 155 154 146 133 109 8 346 6 6 6 4 1 353 345 330 281 312 305 297 308 319
194 194 187 184 184 180 179 181 181 185 184 186 186 181 179 176 174 171 170 171 170 161 156 149 138 134 103 45 32 31 24 26 17 2 354 0 8 304 309 306 292 307 318
190 187 185 187 185 183 181 182 184 189 192 192 191 184 180 178 174 174 177 178 172 159 155 143 146 121 108 74 40 33 33 29 16 6 354 339 332 329 320 308 318 322 328
182 184 186 189 186 187 185 183 185 191 192 193 189 182 179 179 178 179 181 179 171 161 159 149 138 122 122 82 27 17 11 17 21 10 1 358 352 345 340 346 338 330 329
192 186 188 191 187 188 186 183 186 190 189 189 187 182 179 181 185 186 182 179 170 166 166 144 139 139 127 75 0 347 7 8 7 3 4 357 3 341 344 349 349 341 337
200 193 191 194 189 190 186 184 187 191 189 189 189 185 183 188 189 189 181 177 177 177 158 141 146 152 169 3 351 10 6 7 352 351 4 6 359 340 336 349 341 337 330
202 202 198 194 190 192 191 186 187 190 189 189 193 192 191 192 192 188 181 180 182 174 153 150 163 167 94 30 72 6 352 336 332 339 13 12 353 353 350 349 342 336 339
214 207 202 195 194 194 190 190 190 190 190 192 195 195 194 196 191 185 181 185 179 170 160 163 185 221 313 98 329 345 325 329 335 359 39 4 347 348 347 344 340 341 346
213 206 199 198 195 195 192 191 190 191 191 195 198 198 197 194 188 184 186 187 176 169 171 175 181 241 323 294 308 319 321 337 340 37 15 359 348 349 344 343 345 348 353
209 215 200 197 197 197 195 193 194 193 193 196 198 199 197 192 186 187 188 182 178 174 180 182 195 251 267 294 315 316 332 346 348 69 18 357 348 351 349 348 350 354 357
229 207 210 200 198 199 199 197 198 196 195 198 198 197 196 192 187 187 184 183 181 184 198 200 229 278 298 293 316 324 324 328 107 87 33 354 353 350 349 351 358 2 358
245 233 206 205 200 204 201 201 200 199 198 201 200 197 197 193 187 184 182 188 193 206 220 219 260 286 300 304 323 318 305 225 148 134 17 1 354 351 352 359 1 360 357
251 240 228 213 205 207 207 206 203 202 201 202 203 200 198 193 185 184 191 201 205 209 220 242 272 287 282 312 325 280 226 225 201 20 12 356 352 352 353 356 360 360 359
259 244 236 224 216 209 211 210 209 206 204 205 205 202 200 197 191 193 199 206 209 222 228 252 274 271 281 290 271 247 250 205 235 316 354 11 1 351 348 356 359 359 358
260 240 235 223 222 213 212 212 210 208 206 207 205 205 201 193 193 200 209 214 221 231 232 249 264 266 270 260 249 240 224 214 225 311 337 339 346 349 351 355 354 357 356
251 237 231 225 221 215 213 213 209 208 207 208 206 204 200 199 201 204 213 215 229 230 235 243 256 256 258 257 240 228 209 210 237 286 315 326 337 340 346 347 351 352 352
238 229 231 220 219 215 210 209 206 208 208 210 206 202 194 200 204 208 212 219 230 232 238 245 256 255 252 250 229 207 200 214 246 279 297 322 329 338 338 344 348 349 349
224 221 221 217 220 209 206 202 201 206 207 206 203 197 195 198 200 208 218 230 237 238 240 253 257 260 247 227 209 192 197 224 253 267 281 308 327 327 334 343 349 346 348
225 221 215 218 222 202 199 200 201 204 208 209 204 199 198 200 199 210 227 237 237 234 248 258 265 246 232 205 196 190 196 256 263 262 279 305 320 325 334 344 343 347 348
224 219 211 212 205 197 193 196 196 204 206 203 200 198 199 192 199 217 225 223 230 243 257 262 252 236 233 208 210 209 216 243 239 263 280 302 314 319 334 341 340 345 349
224 214 209 212 201 191 190 193 198 203 204 202 199 196 196 192 204 222 221 217 230 243 252 251 226 229 230 231 224 231 246 266 268 279 283 295 310 312 325 334 343 347 352
214 206 196 202 184 189 196 195 197 203 206 200 195 195 196 197 205 220 223 221 225 241 248 228 230 228 232 232 235 248 258 263 256 258 299 306 302 302 316 326 343 350 351
201 215 204 198 198 193 192 189 199 206 203 199 197 198 199 203 206 215 224 227 226 231 224 220 219 219 220 224 231 225 216 211 212 286 304 312 301 300 311 323 343 350 354
Wind_Speed_850mb
66 65 64 57 52 46 41 47 52 51 45 40 38 36 33 30 28 25 23 22 20 17 15 13 11 11 11 9 7 6 6 5 7 9 10 11 15 16 13 13 15 19 24
63 66 63 58 53 46 42 48 52 54 48 43 38 34 31 28 26 23 21 20 18 16 14 13 12 11 8 5 5 7 8 9 12 13 14 15 17 18 13 15 17 15 21
55 68 67 60 55 47 45 47 53 55 50 43 40 35 31 27 24 21 18 17 16 15 14 12 11 10 5 3 6 8 12 14 15 15 16 17 17 15 13 17 14 14 19
39 68 71 64 56 49 45 51 56 54 50 45 40 36 32 28 25 20 18 17 16 15 13 11 10 7 4 2 7 11 12 13 13 12 14 14 10 9 13 17 16 14 18
54 74 72 65 57 50 44 51 56 54 49 45 41 37 34 30 24 21 19 18 16 14 13 10 8 5 2 3 7 10 12 12 11 12 15 16 8 7 14 14 14 15 20
57 69 69 62 56 51 47 49 54 54 50 45 42 40 36 32 26 21 20 17 16 15 12 9 6 5 6 5 7 10 12 12 13 16 17 15 11 11 13 12 15 20 29
62 71 71 64 56 49 46 48 50 51 50 47 45 43 39 33 27 22 20 18 17 15 11 8 6 7 7 3 6 8 11 13 15 18 21 16 13 10 10 17 27 31 32
51 66 67 65 57 50 45 45 47 49 49 47 45 42 37 31 25 23 20 19 16 13 9 9 9 10 6 1 6 8 10 12 15 19 21 15 13 12 15 26 32 33 35
49 60 68 66 58 52 47 44 44 47 46 45 44 40 35 29 26 22 22 21 15 11 10 12 11 10 3 3 6 6 8 12 18 21 16 11 12 19 22 26 33 40 47
51 60 73 71 64 57 50 48 46 46 44 44 41 37 34 30 27 24 23 21 16 13 13 14 10 4 1 2 2 8 10 16 21 21 9 13 17 17 20 28 39 45 42
55 55 76 74 70 63 55 50 46 43 41 39 39 37 35 33 30 27 25 20 17 16 15 9 6 3 2 1 3 8 15 19 18 9 9 12 16 18 25 37 45 43 39
43 52 74 77 76 69 61 56 52 47 44 42 40 37 35 33 31 30 26 23 20 18 13 6 5 5 3 2 11 18 20 18 12 6 7 11 13 23 36 42 43 39 41
31 45 61 79 76 73 68 64 57 52 46 41 37 35 34 33 32 30 25 23 22 18 14 8 6 7 7 11 19 18 16 13 5 6 6 8 19 31 38 39 36 41 44
32 38 58 74 78 76 72 63 58 52 45 40 37 36 35 35 32 28 25 24 22 18 13 11 9 10 13 17 16 14 13 7 1 4 4 13 24 30 35 33 34 37 40
29 42 41 62 75 77 70 67 61 54 48 41 38 37 36 35 32 30 27 25 21 17 15 10 12 16 16 13 14 10 6 2 3 3 4 13 21 28 32 32 36 39 41
40 40 49 52 63 71 70 65 61 56 50 44 38 38 37 33 34 33 28 23 19 16 15 12 15 17 12 10 6 3 4 4 4 2 6 13 20 26 29 32 37 40 41
38 49 53 62 61 68 70 64 60 56 51 44 39 38 37 35 37 33 26 21 21 17 15 14 14 13 11 9 9 7 7 9 4 2 8 9 15 26 29 33 40 41 42
37 51 58 63 77 70 71 69 62 58 51 45 40 40 39 38 35 31 28 25 21 18 17 15 14 14 14 14 14 12 13 11 6 4 10 16 19 19 25 37 41 42 44
37 47 58 63 73 78 71 69 61 58 53 46 44 44 41 38 35 31 27 25 21 20 18 18 16 17 18 18 17 15 15 12 7 8 12 17 19 22 28 37 42 42 45
40 44 56 60 54 70 65 64 60 58 55 50 48 45 44 39 33 29 28 25 24 23 21 21 20 20 20 19 21 20 18 14 11 12 14 14 19 23 30 36 41 41 45
42 47 53 55 51 60 65 66 67 66 62 53 50 48 44 40 34 31 24 26 25 24 23 23 22 23 19 19 23 22 17 14 14 15 13 14 18 23 29 39 40 45 48
49 52 46 49 50 66 65 69 68 66 61 53 52 51 49 39 33 26 23 27 27 26 25 25 26 21 18 25 26 17 8 11 16 17 15 15 20 22 29 36 39 43 48
59 68 48 57 62 68 66 69 65 65 61 59 57 55 50 41 30 25 23 24 27 28 28 27 25 17 17 28 25 15 5 8 8 18 17 16 20 23 27 33 38 43 45
57 63 60 56 71 69 68 69 70 69 66 60 59 58 52 43 36 32 26 26 30 30 26 25 20 18 18 23 30 31 22 18 10 7 14 16 22 27 29 29 34 39 46
57 63 61 95 58 59 72 67 63 64 66 65 67 58 49 49 43 38 31 31 29 23 27 19 19 20 22 26 31 29 29 23 17 9 10 9 16 24 29 28 32 31 42
46 62 72 70 50 67 73 63 59 64 72 73 72 64 60 58 52 41 36 33 26 25 24 20 20 23 24 26 27 22 17 7 5 2 4 9 12 17 23 23 22 29 36
Wind_Direction_850mb
189 180 177 177 171 166 172 170 172 170 166 160 163 160 157 160 156 157 152 149 147 147 143 142 134 123 116 105 89 65 51 18 350 342 339 340 345 341 331 337 341 347 347
188 183 180 180 176 167 172 174 175 171 169 167 170 165 161 164 164 161 155 151 146 149 144 140 138 134 127 104 44 15 356 339 330 324 320 314 322 329 323 332 324 317 333
194 186 183 183 180 174 173 178 177 174 172 175 174 173 168 171 169 163 160 157 156 153 149 149 148 142 126 50 359 349 345 338 335 332 323 314 304 310 317 314 321 298 322
200 193 185 185 183 179 177 178 180 179 175 179 178 178 175 175 171 168 163 163 164 158 155 154 146 133 109 8 346 6 6 6 4 1 353 345 330 281 312 305 297 308 319
194 194 187 184 184 180 179 181 181 185 184 186 186 181 179 176 174 171 170 171 170 161 156 149 138 134 103 45 32 31 24 26 17 2 354 0 8 304 309 306 292 307 318
190 187 185 187 185 183 181 182 184 189 192 192 191 184 180 178 174 174 177 178 172 159 155 143 146 121 108 74 40 33 33 29 16 6 354 339 332 329 320 308 318 322 328
182 184 186 189 186 187 185 183 185 191 192 193 189 182 179 179 178 179 181 179 171 161 159 149 138 122 122 82 27 17 11 17 21 10 1 358 352 345 340 346 338 330 329
192 186 188 191 187 188 186 183 186 190 189 189 187 182 179 181 185 186 182 179 170 166 166 144 139 139 127 75 0 347 7 8 7 3 4 357 3 341 344 349 349 341 337
200 193 191 194 189 190 186 184 187 191 189 189 189 185 183 188 189 189 181 177 177 177 158 141 146 152 169 3 351 10 6 7 352 351 4 6 359 340 336 349 341 337 330
202 202 198 194 190 192 191 186 187 190 189 189 193 192 191 192 192 188 181 180 182 174 153 150 163 167 94 30 72 6 352 336 332 339 13 12 353 353 350 349 342 336 339
214 207 202 195 194 194 190 190 190 190 190 192 195 195 194 196 191 185 181 185 179 170 160 163 185 221 313 98 329 345 325 329 335 359 39 4 347 348 347 344 340 341 346
213 206 199 198 195 195 192 191 190 191 191 195 198 198 197 194 188 184 186 187 176 169 171 175 181 241 323 294 308 319 321 337 340 37 15 359 348 349 344 343 345 348 353
209 215 200 197 197 197 195 193 194 193 193 196 198 199 197 192 186 187 188 182 178 174 180 182 195 251 267 294 315 316 332 346 348 69 18 357 348 351 349 348 350 354 357
229 207 210 200 198 199 199 197 198 196 195 198 198 197 196 192 187 187 184 183 181 184 198 200 229 278 298 293 316 324 324 328 107 87 33 354 353 350 349 351 358 2 358
245 233 206 205 200 204 201 201 200 199 198 201 200 197 197 193 187 184 182 188 193 206 220 219 260 286 300 304 323 318 305 225 148 134 17 1 354 351 352 359 1 360 357
251 240 228 213 205 207 207 206 203 202 201 202 203 200 198 193 185 184 191 201 205 209 220 242 272 287 282 312 325 280 226 225 201 20 12 356 352 352 353 356 360 360 359
259 244 236 224 216 209 211 210 209 206 204 205 205 202 200 197 191 193 199 206 209 222 228 252 274 271 281 290 271 247 250 205 235 316 354 11 1 351 348 356 359 359 358
260 240 235 223 222 213 212 212 210 208 206 207 205 205 201 193 193 200 209 214 221 231 232 249 264 266 270 260 249 240 224 214 225 311 337 339 346 349 351 355 354 357 356
251 237 231 225 221 215 213 213 209 208 207 208 206 204 200 199 201 204 213 215 229 230 235 243 256 256 258 257 240 228 209 210 237 286 315 326 337 340 346 347 351 352 352
238 229 231 220 219 215 210 209 206 208 208 210 206 202 194 200 204 208 212 219 230 232 238 245 256 255 252 250 229 207 200 214 246 279 297 322 329 338 338 344 348 349 349
224 221 221 217 220 209 206 202 201 206 207 206 203 197 195 198 200 208 218 230 237 238 240 253 257 260 247 227 209 192 197 224 253 267 281 308 327 327 334 343 349 346 348
225 221 215 218 222 202 199 200 201 204 208 209 204 199 198 200 199 210 227 237 237 234 248 258 265 246 232 205 196 190 196 256 263 262 279 305 320 325 334 344 343 347 348
224 219 211 212 205 197 193 196 196 204 206 203 200 198 199 192 199 217 225 223 230 243 257 262 252 236 233 208 210 209 216 243 239 263 280 302 314 319 334 341 340 345 349
224 214 209 212 201 191 190 193 198 203 204 202 199 196 196 192 204 222 221 217 230 243 252 251 226 229 230 231 224 231 246 266 268 279 283 295 310 312 325 334 343 347 352
214 206 196 202 184 189 196 195 197 203 206 200 195 195 196 197 205 220 223 221 225 241 248 228 230 228 232 232 235 248 258 263 256 258 299 306 302 302 316 326 343 350 351
201 215 204 198 198 193 192 189 199 206 203 199 197 198 199 203 206 215 224 227 226 231 224 220 219 219 220 224 231 225 216 211 212 286 304 312 301 300 311 323 343 350 354